Regional Weather Roundup
Issued by NWS

Home | Current Version | Previous Version | Text Only | Print | Product List | Glossary Off
Versions: 1 2 3 4 5 6 7 8 9 10 11 12 13 14 15 16 17 18 19 20 21 22 23 24 25 26 27 28 29 30 31 32 33 34 35 36 37 38 39 40 41 42 43 44 45 46 47 48 49 50

816
ASUS43 KMPX 022201
RWRMN
WEATHER ROUNDUP FOR MINNESOTA
NATIONAL WEATHER SERVICE TWIN CITIES/CHANHASSEN MN
400 PM CST FRI DEC 02 2016


NOTE: "FAIR" INDICATES FEW OR NO CLOUDS BELOW 12,000 FEET WITH NO
SIGNIFICANT WEATHER AND/OR OBSTRUCTIONS TO VISIBILITY. N/A MEANS
CURRENT SKY AND/OR WEATHER CONDITIONS ARE NOT AVAILABLE.

MNZ060>063-068>070-022300-
   Twin Cities Metro

CITY           SKY/WX    TMP DP  RH WIND       PRES   REMARKS
TWIN CITIES    CLOUDY    32  23  69 NW6       30.27R WCI  26
ST PAUL        CLOUDY    32  25  75 W6        30.28R WCI  26
CRYSTAL        CLOUDY    32  22  66 W6        30.25R WCI  26
BLAINE         CLOUDY    34  27  75 NW6       30.25R WCI  29
LAKEVILLE      CLOUDY    30  25  80 W6        30.27R WCI  24
EDEN PRAIRIE   CLOUDY    33  22  63 W5        30.26R WCI  29
SOUTH ST PAUL  CLOUDY    33  23  67 CALM      30.27R
LAKE ELMO      CLOUDY    32  27  80 NW6       30.26R WCI  26
$$
MNZ001>005-007-008-013>017-022>024-027-028-022300-
   Northwest Minnesota

CITY           SKY/WX    TMP DP  RH WIND       PRES   REMARKS
BEMIDJI        CLOUDY    23  19  84 NW10      30.23S WCI  13
HALLOCK        CLOUDY    30  25  80 CALM      30.25S
ROSEAU         CLOUDY    27  21  80 NW5       30.24R WCI  21
WARROAD        CLOUDY    25  21  86 W3        30.24R
THIEF RVR FALL CLOUDY    28  21  75 NW6       30.25S WCI  22
CROOKSTON      CLOUDY    30  25  80 N6        30.27S WCI  24
FOSSTON        CLOUDY    25  19  80 W6        30.25S WCI  18
DETROIT LAKES  CLOUDY    28  23  80 N7        30.26R WCI  21
MOORHEAD       CLOUDY    28  21  74 N6        30.29R WCI  22
PARK RAPIDS    CLOUDY    26  19  74 NW7       30.23R WCI  18
$$
MNZ006-009>011-018-025>026-022300-
   North Central Minnesota

CITY           SKY/WX    TMP DP  RH WIND       PRES   REMARKS
BAUDETTE       CLOUDY    24  19  81 W7        30.22S WCI  16
FLAG ISLAND    CLOUDY    21  19  93 NW9       30.22S WCI  11
INTL FALLS     CLOUDY    24  20  84 W7        30.22R WCI  16
WASKISH        CLOUDY    27  23  86 NW5       30.23S WCI  21
BIG FORK       CLOUDY    25  21  86 N3        30.22S
LONGVILLE      CLOUDY    25  21  86 NW3       30.24R
GRAND RAPIDS   CLOUDY    25  22  88 NW7       30.24R WCI  17
CRANE LAKE     CLOUDY    27  25  93 CALM      30.23R
ORR            CLOUDY    25  21  86 CALM      30.18S
COOK           CLOUDY    27  23  86 W6        30.21R WCI  20
$$
MNZ012-019>021-037-022300-
   Northeast Minnesota

CITY           SKY/WX    TMP DP  RH WIND       PRES   REMARKS
DULUTH         CLOUDY    29  23  78 NW7       30.19R WCI  22
ELY            CLOUDY    25  23  93 CALM      30.19S
HIBBING        CLOUDY    26  23  88 NW6       30.20R WCI  19
EVELETH        CLOUDY    28  23  83 NW5       30.21R WCI  22
DULUTH HARBOR  CLOUDY    32  25  74 CALM      30.25R
TWO HARBORS    MOCLDY    30  25  80 W3        30.19R
SILVER BAY     CLOUDY    30  25  80 CALM      30.18S
GRAND MARAIS     N/A     33  25  72 CALM      30.20R
G MARAIS ARPRT CLOUDY    25  19  80 NW5       30.15R WCI  19
$$
MNZ029>031-032-039>041-046>048-054>057-064-022300-
   West Central Minnesota

CITY           SKY/WX    TMP DP  RH WIND       PRES   REMARKS
FERGUS FALLS   CLOUDY    27  19  74 NW7       30.31R WCI  19
WHEATON        CLOUDY   N/A N/A N/A N8        30.31R
MORRIS         CLOUDY    28  21  74 NW9       30.28R WCI  20
ALEXANDRIA     CLOUDY    27  21  78 NW6       30.26R WCI  20
ELBOW LAKE     CLOUDY    26  21  82 NW8       30.28R WCI  18
WADENA         CLOUDY    25  21  86 NW6       30.24R WCI  18
GLENWOOD       CLOUDY    27  21  80 W6        30.26R WCI  20
APPLETON       CLOUDY    28  21  74 NW6       30.30R WCI  22
BENSON         CLOUDY    28  21  74 N3        30.29R
ORTONVILLE     CLOUDY    28  19  69 CALM      30.29R
MADISON        CLOUDY    30  25  80 N6        30.29S WCI  24
WILLMAR        CLOUDY    30  23  74 CALM      30.29R
$$
MNZ033>034-036-042>043-049>051-058-059-022300-
   Central Minnesota

CITY           SKY/WX    TMP DP  RH WIND       PRES   REMARKS
ST CLOUD       CLOUDY    29  23  78 NW7       30.26R WCI  22
PAYNESVILLE    CLOUDY    29  24  81 W6        30.27R WCI  23
AITKIN         CLOUDY    30  21  69 W6        30.22R WCI  24
PINE RIVER     CLOUDY    25  21  86 W3        30.27R
BRAINERD       CLOUDY    26  21  81 NW9       30.24S WCI  17
STAPLES        CLOUDY    25  21  86 NW9       30.24S WCI  15
LONG PRAIRIE   CLOUDY    27  21  80 SW6       30.26R WCI  20
LITTLE FALLS   CLOUDY    28  21  74 NW6       30.25R WCI  22
LITCHFIELD     CLOUDY    30  25  80 W3        30.28R
BUFFALO        CLOUDY    32  24  73 W3        30.27R
MAPLE LAKE     CLOUDY    32  27  81 CALM      30.27R
$$
MNZ037-044-045-052-053-022300-
   East Central Minnesota

CITY           SKY/WX    TMP DP  RH WIND       PRES   REMARKS
PRINCETON      CLOUDY    30  25  80 W5        30.26R WCI  25
MORA           CLOUDY    30  23  74 NW5       30.26R WCI  25
CAMBRIDGE      CLOUDY    30  21  69 NW3       30.24R
RUSH CITY      CLOUDY    30  23  74 CALM      30.25R
MOOSE LAKE     CLOUDY    30  25  80 W5        30.21S WCI  25
HINCKLEY       CLOUDY    30  25  80 NW3       30.24S
CLOQUET        CLOUDY    28  23  80 W6        30.21R WCI  22
MCGREGOR       CLOUDY    30  27  86 W6        30.23R WCI  24
$$
MNZ071>073-080-081-089-090-097-098-022300-
   Southwest Minnesota

CITY           SKY/WX    TMP DP  RH WIND       PRES   REMARKS
MONTEVIDEO     CLOUDY    28  28 100 NW5       30.31R WCI  23
GRANITE FALLS  CLOUDY    31  24  77 W8        30.31R WCI  23
CANBY          CLOUDY    30  22  74 CALM      30.30R
MARSHALL       CLOUDY    29  23  78 NW9       30.29R WCI  20
REDWOOD FALLS  CLOUDY    29  20  69 NW9       30.29R WCI  20
OLIVIA         MOCLDY    30  23  74 W6        30.29R WCI  24
PIPESTONE      CLOUDY    30  21  69 W14       30.26R WCI  20
WINDOM         CLOUDY    30  25  80 CALM      30.28R
WORTHINGTON    CLOUDY    31  24  75 W8        30.28R WCI  23
JACKSON        CLOUDY    30  23  74 NW6       30.28S WCI  24
TRACY          CLOUDY    30  26  83 NW6       30.28R WCI  24
SLAYTON        CLOUDY    29  25  82 W8        30.27R WCI  21
$$
MNZ065>067-074>077-082>085-091>093-022300-
   South Central Minnesota

CITY           SKY/WX    TMP DP  RH WIND       PRES   REMARKS
MANKATO        CLOUDY    29  23  78 NW10      30.29R WCI  20
NEW ULM        CLOUDY    28  19  69 NW12      30.30R WCI  18
ST JAMES       CLOUDY    30  23  74 W8        30.31R WCI  23
FAIRMONT       CLOUDY    29  23  78 NW9       30.30R WCI  20
GLENCOE        CLOUDY    30  25  81 W6        30.28R WCI  24
FARIBAULT      CLOUDY    30  25  80 SW7       30.28R WCI  23
OWATONNA       CLOUDY    30  23  74 W10       30.28R WCI  21
WASECA         CLOUDY    30  25  80 W8        30.29R WCI  23
ALBERT LEA     CLOUDY    34  27  75 W8        30.28R WCI  27
$$
MNZ078>079-086>088-094>096-022300-
   Southeast Minnesota

CITY           SKY/WX    TMP DP  RH WIND       PRES   REMARKS
ROCHESTER      CLOUDY    30  22  72 W9        30.26R WCI  22
RED WING       CLOUDY    34  23  64 NW6       30.26R WCI  29
STANTON        CLOUDY    32  23  69 W3        30.26R
DODGE CENTER   CLOUDY    28  21  74 NW8       30.26R WCI  20
WINONA         CLOUDY    34  25  69 NW8       30.27R WCI  27
AUSTIN         CLOUDY    30  23  74 W8        30.27R WCI  23
PRESTON        CLOUDY    29  22  73 W10       30.27R WCI  20
$$
ABBREVIATIONS USED IN REMARKS
   TC - TEMPERATURES IN CELSIUS
  WCI - WIND CHILL INDEX
   HX - HEAT INDEX
  VSB - VISIBILITY
$$




USA.gov is the U.S. government's official web portal to all federal, state and local government web resources and services.